Regional Weather Roundup
Issued by NWS Green Bay, WI

Home | Current Version | Previous Version | Graphics & Text | Print | Product List | Glossary Off
Versions: 1 2 3 4 5 6 7 8 9 10 11 12 13 14 15 16 17 18 19 20 21 22 23 24 25 26 27 28 29 30 31 32 33 34 35 36 37 38 39 40 41 42 43 44 45 46 47 48 49 50

000
ASUS43 KGRB 281911
RWRGRB

NORTH-CENTRAL AND NORTHEAST WISCONSIN REGIONAL WEATHER ROUNDUP
NATIONAL WEATHER SERVICE GREEN BAY WI
200 PM CDT FRI AUG 28 2015

WIZ005-009-010>012-018-019-282000-
NORTH CENTRAL WISCONSIN

CITY           SKY/WX    TMP DP  RH WIND       PRES   REMARKS
IRONWOOD       PTSUNNY   75  64  69 SW14G20   29.97F
MANITOWISH WTR CLOUDY    71  63  77 SW9       30.04S
ARBOR VITAE    CLOUDY    72  63  73 SW7       30.05F
EAGLE RIVER    CLOUDY    71  60  67 SW8       30.05F
LAND O LAKES   CLOUDY    72  61  68 SW10G16   30.05F
RHINELANDER    CLOUDY    70  61  73 SW8       30.08S
PHILLIPS       MOSUNNY   69  62  79 SW10      30.05F
ANTIGO         CLOUDY    68  61  78 W9        30.09F
TOMAHAWK       CLOUDY    68  61  78 S3        30.08S
MERRILL        CLOUDY    67  62  83 W7        30.09S
$$

WIZ013-073-282000-
NORTHEAST WISCONSIN

CITY           SKY/WX    TMP DP  RH WIND       PRES   REMARKS
IRON MOUNTAIN  CLOUDY    72  61  68 SW9       30.04S
MARINETTE      CLOUDY    72  61  68 SW12      30.06S
OCONTO         CLOUDY    72  62  69 SW8       30.07S
$$

WIZ017-030-035>037-045-282000-
CENTRAL WISCONSIN

CITY           SKY/WX    TMP DP  RH WIND       PRES   REMARKS
MEDFORD        DRIZZLE   63  62  94 CALM      30.09S
WAUSAU         CLOUDY    67  61  81 SW8       30.08S
MOSINEE        LGT RAIN  64  63  94 SW6       30.11S
MARSHFIELD     LGT RAIN  65  61  87 SW9       30.10S
WISC RAPIDS    LGT RAIN  65  61  87 S6        30.12S
STEVENS POINT  DRIZZLE   64  60  87 SW9       30.11R
WAUPACA        LGT RAIN  69  62  78 SW8       30.10S
SHAWANO        CLOUDY    70  61  72 SW7       30.09S
CLINTONVILLE   DRIZZLE   66  59  77 SW7       30.09S
WAUTOMA        CLOUDY    67  62  84 CALM      30.12S
$$

WIZ038-039-048-051-282000-
FOX VALLEY

CITY           SKY/WX    TMP DP  RH WIND       PRES   REMARKS
NWS GREEN BAY  CLOUDY    69  61  75 SW8       30.09F
APPLETON       PTSUNNY   68  59  73 SW9       30.09S
OSHKOSH        CLOUDY    68  59  73 SW6       30.10F
FOND DU LAC    CLOUDY    69  61  75 SW6       30.11F
$$

WIZ022-050-052-282000-
EAST CENTRAL WISCONSIN

CITY           SKY/WX    TMP DP  RH WIND       PRES   REMARKS
EPHRAIM        FAIR      72  61  67 S6        30.07S
STURGEON BAY   PTSUNNY   72  61  68 S13       30.10S
MANITOWOC      CLOUDY    66  59  78 MISG      30.11S
SHEBOYGAN      CLOUDY    71  61  70 SW8       30.11S
$$

LMZ563-521-522-541>543-282000-
LAKESHORE

STATION/POSITION TIME  TEMP    WIND        PRES    VSBY  WAVE
                       AIR SEA DIR/SP/G                  HT/PER
                 (UTC) (F)     (DEG/KT/KT) (MB)    (MI)  (FT/S)
SHEBOYGAN LKSHOR 1900   58     170/ 15/ 16 1019.8F
ALGOMA MARINA    1829          220/ 11/ 13   N/A
NORTHPORT PIER   1800   65     150/  9/ 13 1018.3F
N MID LAKE BUOY  1850   64 64  200/ 17/ 23 1018.3F         3/ 5
SISTER BAY LKSHO 1819   71     190/ 13/ 15   N/A
CHAMBERS ISLAND  1800   70     190/  6/ 13 1018.3F
$$


USA.gov is the U.S. government's official web portal to all federal, state and local government web resources and services.